This is the latest recevied weather packets stored in our database for station/object SQ6RR-12. If no packets are shown the sender has not sent any weather packets the latest 1 day(s).
| Time | Temp. | Humidity | Pressure | Rain* | Wind** | Luminosity | Snow |
|---|---|---|---|---|---|---|---|
| 1778006107 | 15° C | 10% | 1007.4 hPa | 0 mm | 0 m/s | - | - |
| 1778005830 | 15.56° C | 10% | 1007.3 hPa | 0 mm | 0 m/s | - | - |
| 1778005577 | 15.56° C | 10% | 1007.3 hPa | 0 mm | 0 m/s | - | - |
| 1778005291 | 15.56° C | 10% | 1007.4 hPa | 0 mm | 0 m/s | - | - |
| 1778005012 | 15.56° C | 10% | 1007.4 hPa | 0 mm | 0 m/s | - | - |
| 1778004737 | 15.56° C | 10% | 1007.4 hPa | 0 mm | 0 m/s | - | - |
| 1778004472 | 15.56° C | 10% | 1007.4 hPa | 0 mm | 0 m/s | - | - |
| 1778004192 | 16.11° C | 10% | 1007.4 hPa | 0 mm | 0 m/s | - | - |
| 1778003915 | 16.67° C | 10% | 1007.3 hPa | 0 mm | 0 m/s | - | - |
| 1778003636 | 16.67° C | 10% | 1007.3 hPa | 0 mm | 0 m/s | - | - |
| 1778003346 | 16.67° C | 10% | 1007.2 hPa | 0 mm | 0 m/s | - | - |
| 1778003076 | 16.67° C | 10% | 1007.1 hPa | 0 mm | 0 m/s | - | - |
| 1778002812 | 17.22° C | 10% | 1007.2 hPa | 0 mm | 0 m/s | - | - |
| 1778002527 | 17.22° C | 10% | 1007.4 hPa | 0 mm | 0 m/s | - | - |
| 1778002247 | 16.67° C | 10% | 1007.4 hPa | 0 mm | 0 m/s | - | - |
| 1778001962 | 16.67° C | 10% | 1007.4 hPa | 0 mm | 0 m/s | - | - |
| 1778001695 | 17.22° C | 10% | 1007.3 hPa | 0 mm | 0 m/s | - | - |
| 1778001422 | 17.78° C | 10% | 1007.1 hPa | 0 mm | 0 m/s | - | - |
| 1778001151 | 17.78° C | 10% | 1007 hPa | 0 mm | 0 m/s | - | - |
| 1778000879 | 18.33° C | 10% | 1006.9 hPa | 0 mm | 0 m/s | - | - |
| 1778000597 | 19.44° C | 10% | 1006.9 hPa | 0 mm | 0 m/s | - | - |
| 1778000336 | 20.56° C | 88% | 1006.9 hPa | 0 mm | 0 m/s | - | - |
| 1778000075 | 21.11° C | 56% | 1006.9 hPa | 0 mm | 0 m/s | - | - |
| 1777999806 | 21.67° C | 51% | 1006.8 hPa | 0 mm | 0 m/s | - | - |
| 1777999532 | 21.67° C | 51% | 1006.8 hPa | 0 mm | 0 m/s | - | - |
* Rain latest hour (hover to see other rain measurements)
** Current wind speed in m/s (hover to see current wind gust speed)